Regional Weather Roundup
Issued by NWS

Home | Current Version | Previous Version | Graphics & Text | Print | Product List | Glossary On
Versions: 1 2 3 4 5 6 7 8 9 10 11 12 13 14 15 16 17 18 19 20 21 22 23 24 25 26 27 28 29 30 31 32 33 34 35 36 37 38 39 40 41 42 43 44 45 46 47 48 49 50
000
ASUS45 KSLC 100410
RWRUT

UTAH REGIONAL WEATHER ROUNDUP
NATIONAL WEATHER SERVICE SALT LAKE CITY UT
900 PM MST TUE FEB 09 2016

UTZ001>011-023>025-100500-

NORTHERN UTAH

CITY           SKY/WX    TMP DP  RH WIND       PRES   REMARKS
BRIGHAM CITY   PTCLDY    22  19  88 NW3       30.49F
HILL AFB       CLEAR     31  20  66 E8        30.46F WCI  23
LOGAN          PTCLDY    12  10  92 CALM      30.49F FOG
OGDEN          CLEAR     28  24  85 CALM      30.46F
PROVO AIRPORT  CLEAR     23  19  86 CALM      30.49F HAZE
SALT LAKE CITY CLEAR     31  26  82 CALM      30.47F HAZE
VERNAL         CLOUDY    15  11  83 CALM      30.50S FOG
WENDOVER       CLOUDY    32  27  80 CALM      30.50S
HEBER CITY     CLEAR     16  12  86 E3        30.47S
WEST JORDAN    CLEAR     28  27  93 CALM      30.47F

$$

UTZ012>022-026-027-100500-

SOUTHERN/CENTRAL UTAH

CITY           SKY/WX    TMP DP  RH WIND       PRES   REMARKS
BLANDING       CLEAR     31  24  75 N7        30.47S WCI  25
BRYCE CANYON   PTCLDY    21  13  71 W12       30.49S WCI   9
CEDAR CITY     PTCLDY    28  23  81 CALM      30.44F
DELTA            N/A     15  13  94 CALM      30.49F VSB 1/4
HANKSVILLE     PTCLDY    30  28  93 NE3       30.48F
MILFORD        MOCLDY    17  13  84 W5        30.47F WCI  10
MOAB/CYNLANDS  PTCLDY    25  21  85 SW5       30.46R WCI  19
PRICE          CLEAR     27  20  75 N3        30.45S
ST GEORGE      CLEAR     50  27  40 CALM      30.36S
KANAB          CLEAR     43  28  56 N12       30.43R

$$

REGIONAL REPORTS     COLORADO/ARIZONA

CITY           SKY/WX    TMP DP  RH WIND       PRES   REMARKS
CRAIG, CO      CLOUDY     6   3  87 W5        30.47F WCI  -3
GRAND JUNCTION CLOUDY    30  24  78 E6        30.45S WCI  24
RIFLE          CLOUDY    23  15  71 CALM      30.48S
MONTROSE       CLOUDY    27  20  75 SE7       30.49R WCI  19
CORTEZ         CLOUDY    30  23  75 E10       30.39S WCI  21
PAGE, AZ       CLEAR     41  26  55 CALM      30.41R
GRAND CANYON   PTCLDY    29  21  72 NE7       30.44S WCI  22
KINGMAN        CLEAR     52  24  33 E9        30.29R
FLAGSTAFF      CLEAR     29  16  58 E5        30.43S WCI  24

$$

REGIONAL REPORTS    NEVADA/IDAHO/WYOMING

CITY           SKY/WX    TMP DP  RH WIND       PRES   REMARKS
LAS VEGAS, NV  CLEAR     60  28  29 W5        30.22F
ELY            PTCLDY    18  12  77 S14       30.44S WCI   4
ELKO           MOCLDY    20  15  81 E6        30.45S WCI  12
POCATELLO, ID  CLOUDY    21  20  96 N6        30.46F WCI  13
BURLEY         CLEAR     29  26  89 NE12      30.39F WCI  19
EVANSTON, WY   CLOUDY    31  22  69 S6        30.46S WCI  25
ROCK SPRINGS   CLOUDY    35  22  58 SW15      30.40S WCI  25

$$



USA.gov is the U.S. government's official web portal to all federal, state and local government web resources and services.